OpenBCM V1.07b12 (Linux)

Packet Radio Mailbox

DB0FHN

[JN59NK Nuernberg]

 Login: GUEST





  
OK1MJO > VESMIR   08.04.03 12:45l 14 Lines 637 Bytes #999 (0) @ WW
BID : 84DOK0NAG01B
Read: DB0FHN GUEST
Subj: ISS Kepler 2-line
Path: DB0FHN<DB0RGB<OK0PPL<OK0NAG
Sent: 030408/1030z @:OK0NAG.#BOH.CZE.EU [TCP/IP BBS Plzen] bcm2.01e+

Od: OK1MJO @OK0NAG.#BOH.CZE.EU (Martin JO60SH) Pro: VESMIR @ WW
X-Info: Prijato od 217.66.168.75 za pomoci HTTP rozhrani

ISS (ZARYA)             
1 25544U 98067A   03097.78853147  .00021906  00000-0  28403-3 0  8652
2 25544  51.6361  13.7980 0004256  35.6671  59.2566 15.58778559250029
SOYUZ-TMA 1             
1 27552U 02050A   03096.81964002  .00027832  00000-0  35932-3 0  1434
2 27552  51.6362  18.6635 0004249  31.9050  22.4462 15.58742526249877
PROGRESS-M 47           
1 27681U 03006A   03096.81964002  .00027832  00000-0  35932-3 0   595
2 27681  51.6362  18.6635 0004249  31.9050  22.4462 15.58742526249870

73! Martin OK1MJO 


Read previous mail | Read next mail


 15.09.2025 18:59:56lGo back Go up